Change the Weather History Date:

Wednesday, February 5, 2014

  Actual Average (KBMQ) Record (KBMQ)
Temperature  
Mean Temperature 35 °F -  
Max Temperature 43 °F 58 °F 77 °F (2006)
Min Temperature 27 °F 39 °F 19 °F (2011)
Degree Days  
Heating Degree Days 30    
Moisture  
Dew Point 24 °F    
Average Humidity 64    
Maximum Humidity 100    
Minimum Humidity 41    
Precipitation  
Precipitation 0.00 in - - ()
Sea Level Pressure  
Sea Level Pressure 30.35 in    
Wind  
Wind Speed 7 mph (North)    
Max Wind Speed 13 mph    
Max Gust Speed 22 mph    
Visibility 10 miles    
Events      
Averages and records for this station are not official NWS values.
T = Trace of Precipitation, MM = Missing Value Source: NWS Daily Summary

Daily Weather History Graph

Daily Weather History Graph

Search for Another Location

Airport or City:

Trip Planner

Search our weather history database for the weather conditions in past years. The results will help you decide how hot, cold, wet, or windy it might be!

Date:

Astronomy

Feb. 05, 2014 Rise Set
Actual Time 6:21 AM MST 5:13 PM MST
Civil Twilight 5:56 AM MST 5:38 PM MST
Nautical Twilight 5:28 AM MST 6:07 PM MST
Astronomical Twilight 5:00 AM MST 6:35 PM MST
Moon 10:07 AM MST (2/5) 11:38 PM MST (2/5)
Length of Visible Light 11h 41m
Length of Day
10h 51m
Waxing Crescent, 40% of the Moon is Illuminated
Feb 5
Waxing Crescent
Feb 6
First Quarter
Feb 14
Full
Feb 22
Last Quarter
Mar 1
New

Hourly Weather History & Observations

Time (MST) Temp. Windchill Dew Point Humidity Pressure Visibility Wind Dir Wind Speed Gust Speed Precip Events Conditions
12:15 AM 39.0 °F - 37.4 °F 94% 30.15 in 10.0 mi Calm Calm - N/A   Clear
12:35 AM 40.1 °F - 39.9 °F 99% 30.15 in 10.0 mi Calm Calm - N/A   Clear
12:55 AM 41.2 °F - 41.2 °F 100% 30.15 in 10.0 mi Calm Calm - N/A   Clear
1:15 AM 41.2 °F 39.2 °F 39.6 °F 94% 30.15 in 10.0 mi North 3.5 mph - N/A   Clear
1:35 AM 41.4 °F 37.6 °F 37.4 °F 86% 30.15 in 10.0 mi North 5.8 mph - N/A   Clear
1:55 AM 41.0 °F 36.4 °F 36.1 °F 83% 30.17 in 10.0 mi North 6.9 mph - N/A   Clear
2:15 AM 40.1 °F 35.3 °F 34.7 °F 81% 30.17 in 10.0 mi North 6.9 mph - N/A   Clear
2:35 AM 39.7 °F 34.3 °F 32.9 °F 77% 30.18 in 10.0 mi North 8.1 mph - N/A   Clear
2:55 AM 39.2 °F 35.0 °F 32.0 °F 75% 30.19 in 10.0 mi North 5.8 mph - N/A   Clear
3:15 AM 38.7 °F 35.2 °F 31.8 °F 76% 30.20 in 10.0 mi North 4.6 mph - N/A   Clear
3:35 AM 38.8 °F 32.6 °F 32.2 °F 77% 30.21 in 10.0 mi North 9.2 mph 16.1 mph N/A   Mostly Cloudy
3:55 AM 38.7 °F 32.4 °F 32.0 °F 77% 30.23 in 10.0 mi NNW 9.2 mph - N/A   Overcast
4:15 AM 37.8 °F 30.7 °F 31.3 °F 77% 30.25 in 10.0 mi North 10.4 mph 18.4 mph N/A   Overcast
4:35 AM 36.5 °F 28.7 °F 29.8 °F 77% 30.26 in 10.0 mi North 11.5 mph 17.3 mph N/A   Mostly Cloudy
4:55 AM 36.5 °F 30.3 °F 30.4 °F 78% 30.28 in 10.0 mi NNW 8.1 mph - N/A   Mostly Cloudy
5:15 AM 35.8 °F 28.3 °F 29.1 °F 77% 30.30 in 10.0 mi NNW 10.4 mph - N/A   Overcast
5:35 AM 34.0 °F 26.6 °F 27.0 °F 75% 30.32 in 10.0 mi North 9.2 mph 17.3 mph N/A   Mostly Cloudy
5:55 AM 33.8 °F 27.7 °F 26.4 °F 74% 30.34 in 10.0 mi North 6.9 mph 16.1 mph N/A   Overcast
6:15 AM 33.3 °F 26.4 °F 26.4 °F 76% 30.35 in 10.0 mi North 8.1 mph 16.1 mph N/A   Overcast
6:35 AM 33.1 °F 27.7 °F 26.2 °F 76% 30.36 in 10.0 mi North 5.8 mph - N/A   Overcast
6:55 AM 33.4 °F 26.6 °F 26.2 °F 75% 30.37 in 10.0 mi North 8.1 mph 16.1 mph N/A   Overcast
7:15 AM 33.3 °F 24.6 °F 25.7 °F 74% 30.38 in 10.0 mi North 11.5 mph 17.3 mph N/A   Overcast
7:35 AM 33.4 °F 27.3 °F 25.5 °F 73% 30.39 in 10.0 mi NNE 6.9 mph 17.3 mph N/A   Overcast
7:55 AM 33.8 °F 27.7 °F 25.7 °F 72% 30.41 in 10.0 mi North 6.9 mph - N/A   Overcast
8:15 AM 34.2 °F 29.0 °F 25.7 °F 71% 30.42 in 10.0 mi North 5.8 mph - N/A   Overcast
8:35 AM 34.0 °F 28.8 °F 25.3 °F 71% 30.43 in 10.0 mi North 5.8 mph - N/A   Overcast
8:55 AM 33.8 °F 25.8 °F 25.3 °F 71% 30.45 in 10.0 mi NNW 10.4 mph - N/A   Overcast
9:15 AM 33.8 °F 24.8 °F 25.0 °F 70% 30.45 in 10.0 mi NNW 12.7 mph - N/A   Overcast
9:35 AM 33.4 °F 26.6 °F 24.3 °F 69% 30.46 in 10.0 mi NNW 8.1 mph - N/A   Overcast
9:55 AM 34.0 °F 26.0 °F 24.4 °F 68% 30.45 in 10.0 mi NNW 10.4 mph 16.1 mph N/A   Overcast
10:15 AM 35.1 °F 26.4 °F 24.3 °F 65% 30.44 in 10.0 mi North 12.7 mph 20.7 mph N/A   Overcast
10:35 AM 36.3 °F 29.5 °F 24.3 °F 62% 30.44 in 10.0 mi North 9.2 mph - N/A   Mostly Cloudy
10:55 AM 36.9 °F 29.6 °F 23.2 °F 58% 30.43 in 10.0 mi North 10.4 mph 19.6 mph N/A   Mostly Cloudy
11:15 AM 38.1 °F 32.3 °F 23.9 °F 57% 30.42 in 10.0 mi North 8.1 mph - N/A   Mostly Cloudy
11:35 AM 39.2 °F 33.0 °F 22.6 °F 52% 30.42 in 10.0 mi North 9.2 mph - N/A   Scattered Clouds
11:55 AM 39.7 °F 34.9 °F 22.8 °F 51% 30.39 in 10.0 mi NNE 6.9 mph 17.3 mph N/A   Clear
12:15 PM 39.2 °F 31.6 °F 22.1 °F 50% 30.37 in 10.0 mi North 12.7 mph 18.4 mph N/A   Clear
12:35 PM 39.9 °F 33.4 °F 22.6 °F 50% 30.36 in 10.0 mi North 10.4 mph 19.6 mph N/A   Clear
12:55 PM 40.3 °F 34.9 °F 22.1 °F 48% 30.35 in 10.0 mi NNE 8.1 mph 21.9 mph N/A   Clear
1:15 PM 40.6 °F 34.3 °F 21.7 °F 47% 30.34 in 10.0 mi NNE 10.4 mph - N/A   Clear
1:35 PM 41.7 °F 36.7 °F 20.7 °F 43% 30.33 in 10.0 mi NNE 8.1 mph 18.4 mph N/A   Clear
1:55 PM 41.9 °F 36.9 °F 20.3 °F 42% 30.34 in 10.0 mi North 8.1 mph 16.1 mph N/A   Clear
2:15 PM 43.2 °F 39.0 °F 20.8 °F 41% 30.34 in 10.0 mi NNE 6.9 mph 18.4 mph N/A   Clear
2:35 PM 42.3 °F 35.9 °F 21.6 °F 44% 30.33 in 10.0 mi North 11.5 mph - N/A   Clear
2:55 PM 41.7 °F 35.6 °F 20.3 °F 42% 30.33 in 10.0 mi NNE 10.4 mph 18.4 mph N/A   Clear
3:15 PM 40.6 °F 34.3 °F 20.3 °F 44% 30.34 in 10.0 mi NNE 10.4 mph 16.1 mph N/A   Clear
3:35 PM 39.7 °F 32.3 °F 19.9 °F 45% 30.34 in 10.0 mi North 12.7 mph 21.9 mph N/A   Clear
3:55 PM 39.0 °F 33.4 °F 19.0 °F 45% 30.33 in 10.0 mi NNE 8.1 mph 17.3 mph N/A   Clear
4:15 PM 37.2 °F 30.6 °F 18.3 °F 46% 30.35 in 10.0 mi North 9.2 mph - N/A   Clear
4:35 PM 37.2 °F 29.6 °F 18.1 °F 46% 30.35 in 10.0 mi NE 11.5 mph 16.1 mph N/A   Clear
4:55 PM 35.1 °F 29.3 °F 18.3 °F 51% 30.35 in 10.0 mi NNE 6.9 mph - N/A   Clear
5:15 PM 33.4 °F 27.3 °F 18.1 °F 54% 30.36 in 10.0 mi NNE 6.9 mph - N/A   Clear
5:35 PM 32.4 °F 24.0 °F 17.6 °F 55% 30.36 in 10.0 mi NNE 10.4 mph 18.4 mph N/A   Clear
5:55 PM 32.0 °F 25.6 °F 17.1 °F 54% 30.36 in 10.0 mi NNE 6.9 mph 16.1 mph N/A   Clear
6:15 PM 31.8 °F 25.4 °F 17.6 °F 56% 30.37 in 10.0 mi NNE 6.9 mph - N/A   Clear
6:35 PM 30.9 °F 24.3 °F 16.5 °F 55% 30.38 in 10.0 mi NNE 6.9 mph 17.3 mph N/A   Clear
6:55 PM 30.2 °F 21.3 °F 16.9 °F 58% 30.40 in 10.0 mi North 10.4 mph 17.3 mph N/A   Clear
7:15 PM 29.8 °F 22.2 °F 16.5 °F 58% 30.40 in 10.0 mi North 8.1 mph 17.3 mph N/A   Clear
7:35 PM 29.3 °F 22.3 °F 16.2 °F 58% 30.42 in 10.0 mi North 6.9 mph - N/A   Clear
7:55 PM 29.1 °F 22.1 °F 16.2 °F 58% 30.42 in 10.0 mi North 6.9 mph - N/A   Clear
8:15 PM 28.6 °F 19.9 °F 16.2 °F 60% 30.43 in 10.0 mi North 9.2 mph - N/A   Clear
8:35 PM 28.4 °F 21.2 °F 15.8 °F 59% 30.44 in 10.0 mi North 6.9 mph - N/A   Scattered Clouds
8:55 PM 28.2 °F 19.5 °F 16.3 °F 61% 30.43 in 10.0 mi North 9.2 mph - N/A   Scattered Clouds
9:15 PM 28.4 °F 22.2 °F 16.0 °F 60% 30.44 in 10.0 mi North 5.8 mph - N/A   Mostly Cloudy
9:35 PM 28.4 °F 21.2 °F 16.0 °F 60% 30.44 in 10.0 mi North 6.9 mph - N/A   Overcast
9:55 PM 28.4 °F 20.4 °F 16.3 °F 61% 30.44 in 10.0 mi North 8.1 mph - N/A   Overcast
10:15 PM 28.0 °F 22.8 °F 16.0 °F 61% 30.45 in 10.0 mi North 4.6 mph - N/A   Mostly Cloudy
10:35 PM 27.9 °F 20.6 °F 16.2 °F 62% 30.44 in 10.0 mi North 6.9 mph - N/A   Scattered Clouds
10:55 PM 27.7 °F 21.3 °F 15.8 °F 61% 30.44 in 10.0 mi North 5.8 mph - N/A   Mostly Cloudy
11:15 PM 27.5 °F 19.3 °F 15.8 °F 61% 30.43 in 10.0 mi North 8.1 mph - N/A   Mostly Cloudy
11:35 PM 27.5 °F 22.2 °F 16.3 °F 63% 30.43 in 10.0 mi NNE 4.6 mph - N/A   Mostly Cloudy
11:55 PM 27.3 °F 19.1 °F 16.0 °F 62% 30.42 in 10.0 mi North 8.1 mph - N/A   Overcast